Weather History for KMMT - June, 2013

Change the Weather History Date:

Thursday, June 27, 2013

  Actual Average Record
Temperature  
Mean Temperature 80 °F -  
Max Temperature 91 °F 86 °F 98 °F (1998)
Min Temperature 69 °F 70 °F 59 °F (2012)
Cooling Degree Days 15    
Growing Degree Days 30 (Base 50)    
Moisture  
Dew Point 72 °F    
Average Humidity 84    
Maximum Humidity 100    
Minimum Humidity 51    
Precipitation  
Precipitation 0.37 in - - ()
Sea Level Pressure  
Sea Level Pressure 29.89 in    
Wind  
Wind Speed 6 mph (SSW)    
Max Wind Speed 29 mph    
Max Gust Speed 43 mph    
Visibility 7 miles    
Events Rain , Thunderstorm    
Averages and records for this station are not official NWS values.
T = Trace of Precipitation, MM = Missing Value Source: NWS Daily Summary

Daily Weather History Graph

Daily Weather History Graph

Search for Another Location

Airport or City:

Trip Planner

Search our weather history database for the weather conditions in past years. The results will help you decide how hot, cold, wet, or windy it might be!

Date:

Astronomy

Jun. 27, 2013 Rise Set
Actual Time 6:14 AM EDT 8:38 PM EDT
Civil Twilight 5:45 AM EDT 9:07 PM EDT
Nautical Twilight 5:09 AM EDT 9:43 PM EDT
Astronomical Twilight 4:30 AM EDT 10:22 PM EDT
Moon 11:50 PM EDT (6/27) 10:59 AM EDT (6/27)
Length of Visible Light 15h 22m
Length of Day
14h 23m
Waning Gibbous, 76% of the Moon is Illuminated
Jun 27
Waning Gibbous
Jun 30
Last Quarter
Jul 8
New
Jul 15
First Quarter
Jul 22
Full

Hourly Weather History & Observations

Time (EDT) Temp. Heat Index Dew Point Humidity Pressure Visibility Wind Dir Wind Speed Gust Speed Precip Events Conditions
12:58 AM 70.9 °F - 70.9 °F 100% 29.97 in 10.0 mi SE 4.6 mph - N/A   Clear
1:58 AM 71.6 °F - 71.6 °F 100% 29.97 in 10.0 mi SE 2.3 mph - N/A   Mostly Cloudy
2:58 AM 71.1 °F - 71.1 °F 100% 29.96 in 7.0 mi SSE 2.3 mph - N/A   Clear
3:08 AM 69.8 °F - 69.8 °F 100% 29.96 in 2.0 mi SSE 2.3 mph - N/A   Clear
3:18 AM 69.8 °F - 69.8 °F 100% 29.96 in 2.0 mi SSE 4.6 mph - N/A   Clear
3:28 AM 69.8 °F - 69.8 °F 100% 29.96 in 8.0 mi SSE 5.8 mph - N/A   Clear
3:58 AM 71.4 °F - 71.4 °F 100% 29.94 in 10.0 mi SSE 6.9 mph - N/A   Clear
4:58 AM 70.7 °F - 70.7 °F 100% 29.94 in 5.0 mi SE 4.6 mph - N/A   Partly Cloudy
5:08 AM 69.8 °F - 69.8 °F 100% 29.92 in 4.0 mi SE 5.8 mph - N/A   Mostly Cloudy
5:18 AM 71.6 °F - 71.6 °F 100% 29.93 in 6.0 mi SSE 3.5 mph - N/A   Mostly Cloudy
5:58 AM 71.4 °F - 71.4 °F 100% 29.94 in 3.0 mi SW 2.3 mph - N/A   Overcast
6:18 AM 71.6 °F - 71.6 °F 100% 29.94 in 2.5 mi SW 2.3 mph - N/A   Mostly Cloudy
6:28 AM 71.6 °F - 71.6 °F 100% 29.94 in 2.0 mi West 1.2 mph - N/A   Mostly Cloudy
6:38 AM 71.6 °F - 71.6 °F 100% 29.95 in 3.0 mi WSW 1.2 mph - N/A   Mostly Cloudy
6:58 AM 72.3 °F - 72.3 °F 100% 29.94 in 3.0 mi South 3.5 mph - N/A   Scattered Clouds
7:58 AM 75.0 °F - 74.8 °F 99% 29.94 in 6.0 mi SW 6.9 mph - N/A   Scattered Clouds
8:58 AM 79.9 °F - 74.5 °F 83% 29.94 in 10.0 mi SW 5.8 mph - N/A   Scattered Clouds
9:58 AM 84.6 °F 92.4 °F 74.7 °F 72% 29.91 in 10.0 mi WSW 8.1 mph - N/A   Scattered Clouds
10:58 AM 87.3 °F 95.8 °F 74.1 °F 65% 29.90 in 10.0 mi SW 8.1 mph 20.7 mph N/A   Scattered Clouds
11:58 AM 88.7 °F 96.2 °F 72.7 °F 59% 29.90 in 10.0 mi WSW 11.5 mph 19.6 mph N/A   Scattered Clouds
12:58 PM 88.5 °F 94.4 °F 71.2 °F 56% 29.89 in 10.0 mi WSW 11.5 mph 20.7 mph N/A   Scattered Clouds
1:58 PM 90.9 °F 98.3 °F 72.3 °F 54% 29.86 in 10.0 mi WSW 12.7 mph 20.7 mph N/A   Scattered Clouds
2:58 PM 91.2 °F 97.5 °F 71.1 °F 51% 29.83 in 10.0 mi SW 13.8 mph - N/A   Mostly Cloudy
3:54 PM 89.6 °F 96.2 °F 71.6 °F 55% 29.83 in 0.2 mi West 28.8 mph 42.6 mph N/A Rain , Thunderstorm Heavy Thunderstorms and Rain
3:59 PM 84.2 °F 92.3 °F 75.2 °F 74% 29.85 in 0.8 mi WNW 16.1 mph 42.6 mph 0.02 in Rain , Thunderstorm Heavy Thunderstorms and Rain
4:34 PM 77.0 °F - 71.6 °F 83% 29.83 in 7.0 mi WSW 4.6 mph - N/A Thunderstorm Mostly Cloudy
4:55 PM 80.6 °F 85.4 °F 73.4 °F 79% 29.82 in 10.0 mi WSW 4.6 mph - 0.35 in   Mostly Cloudy
5:55 PM 86.0 °F 95.1 °F 75.2 °F 70% 29.79 in 10.0 mi SW 6.9 mph - N/A   Mostly Cloudy
6:55 PM 86.0 °F 93.4 °F 73.4 °F 66% 29.78 in 10.0 mi SSW 8.1 mph - N/A   Mostly Cloudy
7:55 PM 84.2 °F 92.3 °F 75.2 °F 74% 29.79 in 10.0 mi South 4.6 mph - N/A   Partly Cloudy
8:55 PM 82.4 °F 89.5 °F 75.2 °F 79% 29.80 in 10.0 mi SSW 4.6 mph - N/A   Mostly Cloudy
9:55 PM 80.6 °F 85.4 °F 73.4 °F 79% 29.80 in 10.0 mi SSW 6.9 mph - N/A   Partly Cloudy
10:55 PM 80.6 °F 85.4 °F 73.4 °F 79% 29.81 in 10.0 mi SW 11.5 mph - N/A   Scattered Clouds